Jacksonville, IL

11:41 AM CST on February 25, 2017 (GMT -0600)
Jacksonville Municipal

Weather History for KIJX - February, 2013

Change the Weather History Date:

Wednesday, February 13, 2013

  Actual Average (KSPI) Record (KSPI)
Temperature  
Mean Temperature 42 °F -  
Max Temperature 51 °F 37 °F 69 °F (1938)
Min Temperature 32 °F 21 °F -24 °F (1905)
Degree Days  
Heating Degree Days 24    
Moisture  
Dew Point 31 °F    
Average Humidity 72    
Maximum Humidity 92    
Minimum Humidity 44    
Precipitation  
Precipitation 0.00 in - - ()
Sea Level Pressure  
Sea Level Pressure 29.85 in    
Wind  
Wind Speed 6 mph (SW)    
Max Wind Speed 16 mph    
Max Gust Speed 23 mph    
Visibility 10 miles    
Events      
Averages and records for this station are not official NWS values.
T = Trace of Precipitation, MM = Missing Value Source: NWS Daily Summary

Daily Weather History Graph

Daily Weather History Graph

Search for Another Location

Airport or City:

Trip Planner

Search our weather history database for the weather conditions in past years. The results will help you decide how hot, cold, wet, or windy it might be!

Date:

Astronomy

Feb. 13, 2013 Rise Set
Actual Time 6:55 AM CST 5:35 PM CST
Civil Twilight 6:27 AM CST 6:02 PM CST
Nautical Twilight 5:56 AM CST 6:34 PM CST
Astronomical Twilight 5:24 AM CST 7:06 PM CST
Moon 8:25 AM CST (2/13) 9:37 PM CST (2/13)
Length of Visible Light 11h 35m
Length of Day
10h 39m
Waxing Crescent, 14% of the Moon is Illuminated
Feb 13
Waxing Crescent
Feb 17
First Quarter
Feb 25
Full
Mar 4
Last Quarter
Mar 11
New

Hourly Weather History & Observations

Time (CST) Temp. Windchill Dew Point Humidity Pressure Visibility Wind Dir Wind Speed Gust Speed Precip Events Conditions
12:15 AM 33.4 °F 30.4 °F 30.9 °F 90% 29.95 in 10.0 mi SW 3.5 mph - N/A   Scattered Clouds
12:35 AM 32.9 °F - 30.4 °F 90% 29.95 in 10.0 mi Calm Calm - N/A   Clear
12:55 AM 32.5 °F 29.3 °F 30.2 °F 91% 29.94 in 10.0 mi West 3.5 mph - N/A   Clear
1:15 AM 32.4 °F 29.1 °F 30.2 °F 92% 29.93 in 10.0 mi SW 3.5 mph - N/A   Clear
1:35 AM 32.0 °F 28.7 °F 29.8 °F 92% 29.93 in 10.0 mi SSW 3.5 mph - N/A   Scattered Clouds
1:55 AM 32.0 °F - 29.8 °F 92% 29.92 in 7.0 mi Calm Calm - N/A   Clear
2:15 AM 32.0 °F 28.7 °F 29.7 °F 91% 29.91 in 10.0 mi SSW 3.5 mph - N/A   Clear
2:35 AM 32.7 °F 29.6 °F 30.4 °F 91% 29.90 in 10.0 mi SSW 3.5 mph - N/A   Clear
2:55 AM 33.1 °F 30.0 °F 30.0 °F 89% 29.90 in 10.0 mi SW 3.5 mph - N/A   Clear
3:15 AM 32.9 °F 29.8 °F 30.0 °F 89% 29.89 in 10.0 mi SW 3.5 mph - N/A   Clear
3:35 AM 32.9 °F 29.8 °F 30.2 °F 90% 29.88 in 10.0 mi SW 3.5 mph - N/A   Clear
3:55 AM 33.1 °F - 29.7 °F 87% 29.88 in 10.0 mi Calm Calm - N/A   Clear
4:15 AM 32.5 °F 28.1 °F 30.6 °F 92% 29.88 in 7.0 mi SW 4.6 mph - N/A   Clear
4:35 AM 32.9 °F 28.5 °F 29.3 °F 87% 29.88 in 10.0 mi SW 4.6 mph - N/A   Clear
4:55 AM 33.1 °F 28.7 °F 29.1 °F 85% 29.87 in 10.0 mi SSW 4.6 mph - N/A   Clear
5:15 AM 33.1 °F 27.7 °F 29.3 °F 86% 29.87 in 10.0 mi SSW 5.8 mph - N/A   Clear
5:35 AM 33.4 °F 28.1 °F 28.9 °F 84% 29.86 in 10.0 mi SSW 5.8 mph - N/A   Clear
5:55 AM 33.3 °F 27.9 °F 28.8 °F 84% 29.86 in 10.0 mi SW 5.8 mph - N/A   Clear
6:15 AM 33.1 °F 26.1 °F 28.6 °F 84% 29.86 in 10.0 mi SSW 8.1 mph - N/A   Clear
6:35 AM 32.2 °F 25.8 °F 28.2 °F 85% 29.85 in 10.0 mi SW 6.9 mph - N/A   Clear
6:55 AM 32.0 °F 25.6 °F 28.0 °F 85% 29.86 in 10.0 mi SW 6.9 mph - N/A   Clear
7:15 AM 32.5 °F 26.2 °F 28.4 °F 85% 29.86 in 10.0 mi SW 6.9 mph - N/A   Clear
7:35 AM 33.1 °F 26.1 °F 28.9 °F 85% 29.86 in 10.0 mi SSW 8.1 mph - N/A   Clear
7:55 AM 34.7 °F 28.8 °F 29.3 °F 81% 29.86 in 10.0 mi SSW 6.9 mph - N/A   Clear
8:15 AM 35.8 °F 28.8 °F 30.0 °F 80% 29.86 in 10.0 mi SSW 9.2 mph - N/A   Clear
8:35 AM 36.5 °F 31.0 °F 30.2 °F 78% 29.86 in 10.0 mi SW 6.9 mph - N/A   Clear
8:55 AM 37.2 °F 31.2 °F 30.9 °F 78% 29.86 in 10.0 mi SSW 8.1 mph - N/A   Clear
9:15 AM 38.8 °F 32.6 °F 31.3 °F 74% 29.86 in 10.0 mi WSW 9.2 mph - N/A   Clear
9:35 AM 39.6 °F 33.5 °F 30.9 °F 71% 29.85 in 10.0 mi SW 9.2 mph - N/A   Clear
9:55 AM 40.6 °F 34.8 °F 31.3 °F 69% 29.85 in 10.0 mi SW 9.2 mph - N/A   Clear
10:15 AM 41.9 °F 35.9 °F 31.8 °F 67% 29.84 in 10.0 mi WSW 10.4 mph - N/A   Clear
10:35 AM 43.3 °F 37.2 °F 32.5 °F 66% 29.85 in 10.0 mi WSW 11.5 mph - N/A   Clear
10:55 AM 44.6 °F 39.2 °F 32.4 °F 62% 29.85 in 10.0 mi WSW 10.4 mph - N/A   Clear
11:15 AM 45.9 °F 39.7 °F 33.4 °F 62% 29.85 in 10.0 mi WSW 13.8 mph - N/A   Clear
11:35 AM 46.4 °F 41.9 °F 32.7 °F 59% 29.84 in 10.0 mi WSW 9.2 mph - N/A   Clear
11:55 AM 48.0 °F - 33.4 °F 57% 29.83 in 10.0 mi SW 12.7 mph - N/A   Clear
12:15 PM 48.2 °F - 33.8 °F 58% 29.82 in 10.0 mi SW 11.5 mph - N/A   Clear
12:35 PM 49.3 °F - 32.7 °F 53% 29.82 in 10.0 mi SW 15.0 mph 18.4 mph N/A   Clear
12:55 PM 49.8 °F - 33.3 °F 53% 29.81 in 10.0 mi SW 11.5 mph 16.1 mph N/A   Clear
1:15 PM 50.0 °F - 32.2 °F 50% 29.80 in 10.0 mi WSW 13.8 mph 19.6 mph N/A   Clear
1:35 PM 50.9 °F - 31.5 °F 47% 29.80 in 10.0 mi WSW 12.7 mph 18.4 mph N/A   Clear
1:55 PM 51.8 °F - 30.2 °F 44% 29.79 in 10.0 mi West 11.5 mph - N/A   Clear
2:15 PM 51.6 °F - 31.1 °F 45% 29.79 in 10.0 mi West 13.8 mph - N/A   Clear
2:35 PM 51.6 °F - 31.1 °F 45% 29.79 in 10.0 mi West 16.1 mph 23.0 mph N/A   Clear
2:55 PM 51.4 °F - 30.6 °F 45% 29.80 in 10.0 mi West 15.0 mph - N/A   Clear
3:15 PM 51.3 °F - 31.3 °F 46% 29.80 in 10.0 mi West 10.4 mph - N/A   Clear
3:35 PM 51.3 °F - 32.0 °F 48% 29.80 in 10.0 mi West 12.7 mph - N/A   Clear
3:55 PM 51.1 °F - 31.8 °F 48% 29.80 in 10.0 mi West 15.0 mph - N/A   Clear
4:15 PM 50.5 °F - 32.2 °F 49% 29.80 in 10.0 mi West 13.8 mph 18.4 mph N/A   Clear
4:35 PM 48.6 °F - 32.7 °F 54% 29.81 in 10.0 mi West 10.4 mph - N/A   Clear
4:55 PM 48.2 °F - 33.6 °F 57% 29.81 in 10.0 mi West 8.1 mph - N/A   Clear
5:15 PM 47.7 °F - 32.9 °F 57% 29.81 in 10.0 mi West 5.8 mph - N/A   Clear
5:35 PM 45.7 °F 42.7 °F 32.7 °F 61% 29.81 in 10.0 mi West 5.8 mph - N/A   Clear
5:55 PM 42.6 °F 39.9 °F 32.0 °F 66% 29.82 in 10.0 mi WSW 4.6 mph - N/A   Clear
6:15 PM 40.8 °F - 32.0 °F 71% 29.82 in 10.0 mi Calm Calm - N/A   Clear
6:35 PM 40.8 °F - 32.2 °F 71% 29.83 in 10.0 mi Calm Calm - N/A   Clear
6:55 PM 41.2 °F - 32.4 °F 71% 29.83 in 10.0 mi Calm Calm - N/A   Clear
7:15 PM 40.3 °F 38.2 °F 32.2 °F 73% 29.83 in 10.0 mi SW 3.5 mph - N/A   Clear
7:35 PM 38.5 °F 35.0 °F 32.0 °F 78% 29.83 in 10.0 mi SSW 4.6 mph - N/A   Clear
7:55 PM 38.7 °F 35.2 °F 32.0 °F 77% 29.83 in 10.0 mi SSW 4.6 mph - N/A   Clear
8:15 PM 39.2 °F 35.9 °F 32.0 °F 75% 29.83 in 10.0 mi SSW 4.6 mph - N/A   Clear
8:35 PM 37.9 °F 33.5 °F 31.5 °F 77% 29.83 in 10.0 mi SSW 5.8 mph - N/A   Clear
8:55 PM 38.8 °F 36.5 °F 31.5 °F 75% 29.83 in 10.0 mi SSW 3.5 mph - N/A   Clear
9:15 PM 38.5 °F 34.1 °F 31.3 °F 75% 29.83 in 10.0 mi SSW 5.8 mph - N/A   Clear
9:35 PM 38.8 °F 35.4 °F 31.5 °F 75% 29.82 in 10.0 mi South 4.6 mph - N/A   Clear
9:55 PM 39.2 °F 35.9 °F 31.3 °F 73% 29.82 in 10.0 mi South 4.6 mph - N/A   Clear
10:15 PM 38.5 °F 33.4 °F 31.1 °F 75% 29.82 in 10.0 mi South 6.9 mph - N/A   Clear
10:35 PM 38.5 °F 34.1 °F 31.1 °F 75% 29.82 in 10.0 mi South 5.8 mph - N/A   Clear
10:55 PM 38.1 °F 33.7 °F 31.1 °F 76% 29.82 in 10.0 mi SSW 5.8 mph - N/A   Clear
11:15 PM 39.2 °F 32.5 °F 31.8 °F 75% 29.81 in 10.0 mi SSW 10.4 mph - N/A   Clear
11:35 PM 39.4 °F 33.2 °F 31.8 °F 74% 29.81 in 10.0 mi SSW 9.2 mph - N/A   Clear
11:55 PM 39.9 °F 34.5 °F 32.0 °F 73% 29.81 in 10.0 mi SSW 8.1 mph - N/A   Clear